Retour au catalogue

STARLINK-6351

ActifCommunicationsVLEO
NORAD 57240·PAYLOAD·🇺🇸 United States

Lancé Jul 7, 2023 depuis Vandenberg Space Force Base

Loading…

Prochains Passages (prochaines 24 heures)

TLE

FraisSource: CelesTrak SupGP

Époque: Sep 15, 2026, 02:57 UTC

1 57240C 23094Y   26258.12340278 -.00024764  00000+0 -89685-3 0  2587
2 57240  43.0030  29.6676 0001927 267.7260 181.3421 15.27593426    10

Suivez STARLINK-6351 en temps réel avec AllMySat

Download on the App Store